Weather History for PPIZ - April, 2013

Change the Weather History Date:

Wednesday, April 3, 2013

  Actual Average Record
Temperature  
Mean Temperature -10 °F -  
Max Temperature -4 °F 7 °F 32 °F (1999)
Min Temperature -16 °F -3 °F -23 °F (2004)
Degree Days  
Heating Degree Days 75    
Moisture  
Dew Point -15 °F    
Average Humidity 77    
Maximum Humidity 84    
Minimum Humidity 71    
Precipitation  
Precipitation 0.00 in - - ()
Sea Level Pressure  
Sea Level Pressure 30.71 in    
Wind  
Wind Speed 27 mph (ENE)    
Max Wind Speed 32 mph    
Max Gust Speed 39 mph    
Visibility 2 miles    
Events      
Averages and records for this station are not official NWS values.
T = Trace of Precipitation, MM = Missing Value Source: NWS Daily Summary

Daily Weather History Graph

Daily Weather History Graph

Search for Another Location

Airport or City:

Trip Planner

Search our weather history database for the weather conditions in past years. The results will help you decide how hot, cold, wet, or windy it might be!

Date:

Astronomy

Apr. 03, 2013 Rise Set
Actual Time 7:44 AM AKDT 10:08 PM AKDT
Civil Twilight 6:37 AM AKDT 11:16 PM AKDT
Nautical Twilight 4:56 AM AKDT 1:01 AM AKDT
Astronomical Twilight Sun does not set Sun does not set
Moon 7:20 AM AKDT (4/3) 11:53 AM AKDT (4/3)
Length of Visible Light 16h 38m
Length of Day
14h 24m
Last Quarter, 43% of the Moon is Illuminated
Apr 3
Last Quarter
Apr 10
New
Apr 18
First Quarter
Apr 25
Full
May 2
Last Quarter

Hourly Weather History & Observations

Time (AKDT) Temp. Windchill Dew Point Humidity Pressure Visibility Wind Dir Wind Speed Gust Speed Precip Events Conditions
12:56 AM -14.8 °F -44.5 °F -18.4 °F 84% 30.62 in - ENE 26.5 mph - N/A   Clear
1:56 AM -13.9 °F -42.8 °F -18.9 °F 78% 30.63 in - ENE 25.3 mph - N/A   Clear
2:56 AM -15.0 °F -43.7 °F -20.9 °F 75% 30.65 in - ENE 24.2 mph - N/A   Clear
3:56 AM -14.8 °F -44.5 °F -20.2 °F 77% 30.63 in - ENE 26.5 mph - N/A   Clear
4:56 AM -15.9 °F -45.5 °F -22.0 °F 74% 30.66 in - ENE 25.3 mph - N/A   Clear
5:56 AM -15.9 °F -46.0 °F -22.0 °F 74% 30.67 in - ENE 26.5 mph - N/A   Clear
6:56 AM -16.6 °F -47.9 °F -22.0 °F 76% 30.64 in - ENE 28.8 mph - N/A   Clear
7:56 AM -15.9 °F -47.4 °F -22.0 °F 74% 30.68 in - ENE 29.9 mph - N/A   Clear
8:56 AM -15.9 °F -46.0 °F -22.0 °F 74% 30.68 in - ENE 26.5 mph - N/A   Clear
9:56 AM -14.8 °F -45.5 °F -20.2 °F 77% 30.68 in - ENE 28.8 mph - N/A   Clear
10:56 AM -13.0 °F -41.6 °F -18.9 °F 75% 30.71 in - ENE 25.3 mph 34.5 mph N/A   Clear
11:17 AM -13.0 °F -42.1 °F -18.4 °F 77% 30.70 in 2.5 mi ENE 26.5 mph - N/A   Haze
11:36 AM -13.0 °F -42.1 °F -18.4 °F 77% 30.70 in 3.0 mi ENE 26.5 mph - N/A   Haze
11:56 AM -11.9 °F -40.6 °F -17.9 °F 75% 30.72 in 4.0 mi ENE 26.5 mph - N/A   Haze
12:56 PM -9.9 °F -38.4 °F -15.9 °F 75% 30.72 in 3.0 mi ENE 27.6 mph 32.2 mph N/A   Haze
1:04 PM -9.4 °F -37.3 °F -16.6 °F 71% 30.71 in 2.5 mi ENE 26.5 mph - N/A   Haze
1:56 PM -6.9 °F -33.9 °F -13.0 °F 75% 30.73 in 1.8 mi ENE 26.5 mph 32.2 mph N/A   Haze
2:18 PM -7.6 °F -35.3 °F -13.0 °F 77% 30.72 in 2.0 mi ENE 27.6 mph 33.4 mph N/A   Haze
2:27 PM -7.6 °F -33.9 °F -13.0 °F 77% 30.72 in 3.0 mi ENE 24.2 mph - N/A   Haze
2:56 PM -6.0 °F -31.7 °F -13.0 °F 72% 30.74 in 5.0 mi ENE 24.2 mph - N/A   Haze
3:35 PM -5.8 °F -32.4 °F -11.2 °F 77% 30.72 in 2.0 mi ENE 26.5 mph - N/A   Haze
3:56 PM -5.8 °F -33.7 °F -11.2 °F 77% 30.71 in 1.2 mi ENE 29.9 mph 35.7 mph N/A   Haze
4:07 PM -5.8 °F -32.4 °F -9.4 °F 84% 30.71 in 1.5 mi ENE 26.5 mph 33.4 mph N/A   Haze
4:56 PM -4.9 °F -31.6 °F -9.9 °F 79% 30.73 in 1.5 mi ENE 27.6 mph - N/A   Haze
5:22 PM -5.8 °F -32.9 °F -9.4 °F 84% 30.71 in 1.0 mi ENE 27.6 mph - N/A   Haze
5:42 PM -5.8 °F -33.3 °F -9.4 °F 84% 30.72 in 1.2 mi ENE 28.8 mph - N/A   Haze
5:56 PM -4.9 °F -32.1 °F -10.8 °F 76% 30.73 in 1.0 mi ENE 28.8 mph 35.7 mph N/A   Haze
6:27 PM -5.8 °F -32.0 °F -9.4 °F 84% 30.72 in 1.2 mi ENE 25.3 mph - N/A   Haze
6:41 PM -5.8 °F -33.7 °F -11.2 °F 77% 30.73 in 2.0 mi ENE 29.9 mph 33.4 mph N/A   Haze
6:56 PM -5.8 °F -34.5 °F -11.2 °F 77% 30.73 in 2.5 mi ENE 32.2 mph 39.1 mph N/A   Haze
7:17 PM -5.8 °F -33.7 °F -11.2 °F 77% 30.73 in 1.8 mi ENE 29.9 mph 34.5 mph N/A   Haze
7:36 PM -5.8 °F -33.3 °F -11.2 °F 77% 30.73 in 1.2 mi ENE 28.8 mph - N/A   Haze
7:46 PM -7.6 °F -34.8 °F -11.2 °F 84% 30.73 in 1.8 mi ENE 26.5 mph 31.1 mph N/A   Haze
7:56 PM -6.9 °F -33.4 °F -11.9 °F 79% 30.75 in 1.5 mi ENE 25.3 mph 35.7 mph N/A   Haze
8:08 PM -7.6 °F -34.8 °F -13.0 °F 77% 30.73 in 2.5 mi ENE 26.5 mph 32.2 mph N/A   Haze
8:56 PM -8.0 °F -34.4 °F -13.9 °F 75% 30.75 in 2.5 mi ENE 24.2 mph - N/A   Haze
9:22 PM -9.4 °F -35.8 °F -14.8 °F 77% 30.73 in 1.5 mi ENE 23.0 mph 34.5 mph N/A   Haze
9:56 PM -9.9 °F -38.0 °F -15.0 °F 78% 30.75 in 2.0 mi ENE 26.5 mph - N/A   Haze
10:34 PM -9.4 °F -36.3 °F -16.6 °F 71% 30.74 in 1.8 mi ENE 24.2 mph - N/A   Haze
10:43 PM -9.4 °F -36.3 °F -16.6 °F 71% 30.74 in 2.0 mi ENE 24.2 mph - N/A   Haze
10:56 PM -9.9 °F -37.0 °F -15.9 °F 75% 30.76 in 4.0 mi ENE 24.2 mph - N/A   Haze
11:56 PM -9.9 °F -36.0 °F -15.9 °F 75% 30.77 in 9.0 mi ENE 21.9 mph - N/A   Clear